Wind_Speed
7 8 7 6 6 9 8 5 5 7 11 7 5 9 10 12 12 12 11 14 14 15 16 15 15 15 15 15 15 15 14 14 14 14 14 15 15 15 15 15 15 16 16 15 15 14 14 14 14
8 9 10 10 12 10 4 5 3 4 11 6 6 9 12 12 13 13 13 13 17 16 17 18 18 18 18 17 17 17 17 16 16 15 14 14 15 15 15 14 15 15 15 14 14 14 15 15 15
10 11 13 13 12 12 7 5 4 6 11 9 8 8 9 11 11 14 14 12 17 18 16 18 18 19 20 20 19 19 18 18 17 17 16 16 15 15 15 15 14 14 14 13 12 13 12 14 14
9 12 13 13 13 13 4 5 8 10 15 10 13 12 12 12 14 14 15 14 17 16 18 19 20 20 20 20 19 18 18 18 18 18 18 18 18 18 17 16 15 15 15 15 14 13 13 13 13
9 12 15 12 11 11 9 10 11 9 18 11 12 14 14 13 16 16 15 16 20 22 22 22 22 21 20 19 18 18 18 18 18 18 18 18 18 18 18 18 18 17 17 17 16 16 15 14 14
11 13 15 11 11 10 9 12 10 10 18 14 10 15 16 17 18 20 19 19 21 24 21 21 20 20 20 19 18 18 18 17 17 18 18 18 18 18 18 18 17 17 17 18 18 17 18 17 16
13 14 15 14 8 11 11 14 10 12 17 19 13 17 20 20 21 23 22 20 21 20 19 18 18 18 17 17 16 16 17 19 19 19 19 18 18 18 18 17 16 16 17 17 18 18 19 19 19
15 15 18 18 11 11 13 14 14 15 17 21 21 17 22 23 24 23 25 22 22 18 17 17 20 19 20 20 21 19 19 20 19 17 16 17 16 15 16 18 17 17 17 17 18 18 18 19 20
17 20 20 20 12 13 15 14 16 14 18 22 24 24 22 23 24 24 23 22 21 20 18 19 18 18 20 21 17 16 15 16 17 17 16 15 15 16 16 17 18 18 18 19 19 20 20 20 21
19 20 19 18 13 12 16 15 16 15 18 23 23 24 25 25 25 25 22 20 20 19 17 16 15 12 11 17 17 17 15 15 16 16 16 16 17 19 19 19 19 20 21 21 22 23 23 24 24
20 21 20 17 16 15 13 17 16 13 16 21 22 23 24 25 26 26 22 18 19 18 17 16 17 16 13 15 18 17 18 18 19 18 19 19 18 19 21 24 24 25 26 27 26 26 27 28 28
23 20 19 20 18 15 13 14 18 16 18 19 20 21 22 23 23 23 21 17 17 19 20 19 19 18 19 19 19 18 19 21 21 22 23 25 25 25 25 24 26 28 31 31 31 32 32 33 33
24 21 20 19 18 18 16 15 18 19 20 21 22 22 22 22 21 20 19 19 19 21 22 21 20 22 21 19 19 20 21 22 23 24 25 27 29 29 30 32 34 34 32 33 37 37 37 38 39
25 22 19 21 21 19 19 17 18 22 22 22 22 23 23 21 21 21 21 22 23 23 24 23 21 21 20 20 21 21 23 24 25 27 28 30 32 34 36 38 40 41 41 41 40 41 43 43 43
24 23 20 23 22 21 20 18 18 22 23 23 22 23 23 21 21 23 24 23 23 23 22 22 22 22 22 22 24 26 27 28 30 32 34 37 39 39 41 42 44 46 47 48 49 50 49 49 50
22 22 23 24 22 21 22 19 19 22 25 25 24 23 23 23 23 24 24 23 23 24 24 24 25 25 25 27 28 29 31 33 35 36 40 43 44 46 48 49 50 51 53 54 55 56 56 56 55
22 23 24 22 22 19 22 22 21 22 26 25 25 23 24 24 23 26 26 26 26 26 27 27 27 28 29 31 32 33 35 38 40 43 46 49 51 53 54 56 58 58 59 60 60 61 61 62 63
22 20 24 27 23 20 21 22 23 23 26 25 25 24 23 25 25 27 26 27 27 27 28 28 30 30 32 34 35 38 40 43 46 48 52 54 56 57 59 60 61 63 64 65 65 64 65 67 68
22 23 22 26 24 20 23 22 24 22 22 27 25 26 25 25 24 27 26 27 27 28 29 30 32 33 34 37 39 42 45 48 50 54 57 59 60 62 63 64 65 66 66 67 69 69 70 71 70
21 23 21 24 26 23 27 22 25 23 20 27 26 27 26 26 24 26 27 28 30 30 32 35 36 37 39 41 44 47 50 53 56 59 61 62 64 65 65 66 66 67 69 71 72 74 74 74 74
23 22 22 26 28 25 28 24 24 22 21 25 26 26 27 26 27 28 29 31 33 35 36 38 40 42 45 47 49 52 55 59 61 62 64 64 65 65 67 69 70 71 72 72 72 73 72 70 71
24 25 26 27 30 29 27 29 18 23 23 24 25 26 28 28 30 31 31 32 35 37 40 43 45 47 50 52 56 60 62 63 65 65 65 65 67 69 70 71 71 71 70 69 69 71 72 72 73
26 26 26 27 28 29 22 31 19 22 22 23 25 26 27 29 31 34 36 38 40 43 45 47 50 52 56 60 63 65 67 69 69 69 69 70 71 71 70 69 67 68 70 72 73 74 74 75 74
26 26 27 27 26 27 26 28 26 23 21 25 25 27 29 30 33 36 39 42 44 46 48 51 54 58 61 63 66 68 70 71 72 73 73 72 70 68 68 70 71 72 72 73 74 75 74 74 72
25 23 25 26 25 27 28 29 25 28 27 27 27 26 30 35 38 41 43 44 47 50 53 57 60 62 65 67 69 71 72 74 74 73 72 71 71 73 73 73 74 74 76 76 74 72 71 71 70
21 23 24 27 27 28 29 29 31 32 32 32 30 35 37 39 44 45 46 48 52 55 58 61 64 66 68 70 71 73 72 71 70 71 74 75 75 75 76 77 78 78 78 76 74 73 73 74 73
22 23 26 28 27 30 28 30 32 33 32 36 40 43 46 47 49 49 51 54 57 59 62 64 67 68 70 70 70 68 69 71 73 73 74 75 76 77 79 79 79 77 75 76 78 79 78 78 77
24 25 25 27 29 29 29 31 32 32 36 41 45 48 50 50 49 50 54 56 59 62 64 66 66 66 67 68 69 70 70 71 73 75 76 77 78 79 79 76 75 76 78 81 82 82 82 82 80
25 26 26 27 29 32 33 32 37 39 43 47 49 48 48 49 52 55 57 58 59 60 61 63 65 66 67 68 70 71 73 76 78 79 79 79 78 78 75 73 76 78 79 81 82 82 80 80 76
24 26 27 29 30 34 36 38 42 44 47 50 52 52 54 56 57 58 58 59 60 61 61 62 64 68 71 73 75 77 77 78 79 79 78 77 75 73 74 76 78 79 76 74 75 78 80 80 78
Wind_Direction
199 215 197 217 217 218 185 177 192 227 246 255 247 261 265 271 276 279 284 286 290 291 294 295 295 294 294 295 300 304 310 316 323 328 332 337 345 349 351 355 357 359 360 357 355 354 351 351 352
205 212 208 214 229 232 157 154 186 245 267 258 262 253 265 273 280 281 286 288 291 294 295 296 294 293 292 292 294 298 302 306 309 311 314 320 325 330 334 340 345 348 350 352 352 350 347 343 344
208 218 217 209 217 128 197 191 211 252 259 290 279 269 273 279 285 289 291 293 291 294 292 293 295 296 296 297 298 298 299 298 299 301 304 307 310 313 316 321 326 330 333 336 339 339 339 338 338
213 229 236 229 232 255 268 237 235 248 262 268 279 279 274 269 277 282 290 296 293 291 294 296 295 293 293 295 298 298 300 299 300 301 302 303 304 305 306 308 310 313 316 320 324 324 325 328 326
222 232 242 234 242 244 245 252 251 257 269 263 277 284 280 281 283 281 288 297 299 297 296 294 293 294 296 299 300 300 300 302 302 302 302 302 304 304 304 304 306 308 308 309 312 315 315 315 313
224 236 246 243 226 244 245 256 256 257 271 273 275 282 282 287 288 291 294 296 294 295 297 299 301 301 300 299 300 301 302 300 302 304 305 305 304 305 304 305 307 307 306 307 307 307 307 307 306
223 239 254 252 196 232 233 248 249 254 270 281 273 278 287 291 291 294 296 297 296 302 306 300 301 300 297 293 296 298 301 301 300 300 301 303 304 304 304 302 305 307 307 308 309 309 308 307 306
224 233 251 252 231 240 237 246 251 256 270 279 284 281 286 290 294 296 299 300 298 295 292 292 293 296 294 301 301 295 299 299 297 299 301 301 300 300 303 304 306 305 305 304 304 304 305 305 304
226 235 240 261 269 235 254 247 257 257 267 275 285 290 290 292 294 297 300 301 298 295 290 285 281 287 295 298 297 298 298 299 298 303 302 305 306 306 303 302 303 301 299 298 297 298 297 297 296
233 244 252 259 257 249 254 254 247 263 273 281 286 291 295 295 296 297 298 300 300 298 298 299 302 298 292 291 293 296 294 292 296 299 299 298 302 304 302 300 297 296 294 294 294 295 294 293 290
243 246 255 263 259 251 248 265 267 256 253 268 278 284 287 289 293 296 298 299 296 298 297 297 295 296 294 287 293 295 295 293 293 292 289 289 285 284 288 290 290 290 291 291 290 288 287 286 285
248 256 262 267 266 265 261 263 277 284 282 282 284 285 286 286 286 289 293 294 291 293 296 298 296 295 294 294 292 291 292 295 297 297 298 298 295 290 286 282 284 285 288 288 287 285 284 282 282
255 257 263 265 268 274 276 271 279 284 283 287 288 287 286 286 285 286 289 291 290 291 292 293 292 293 295 295 294 298 298 298 299 300 300 298 298 298 298 297 295 294 289 285 287 286 284 283 282
257 258 259 268 270 272 274 277 279 282 285 286 288 287 286 285 285 283 287 291 293 293 293 293 290 290 290 291 293 294 295 298 298 298 297 299 298 297 295 294 293 292 290 288 284 282 282 280 279
261 262 260 262 266 270 273 280 283 281 285 286 284 282 282 280 278 282 285 288 289 289 288 288 287 286 285 286 289 290 292 295 297 296 297 300 299 295 293 291 290 288 288 288 287 285 281 280 280
263 266 259 260 265 266 271 273 279 280 285 287 284 280 277 277 278 282 284 284 284 284 288 286 284 282 280 284 285 287 291 295 293 294 296 297 296 295 294 292 289 288 287 286 285 284 284 282 280
262 264 272 269 263 267 274 277 278 278 281 280 279 275 274 277 282 284 284 284 284 284 287 287 283 282 280 282 285 289 293 294 296 296 297 297 296 295 293 291 290 289 287 286 286 285 284 285 283
262 267 270 275 270 268 270 276 283 281 280 277 275 273 272 279 281 281 284 283 284 285 287 287 286 286 287 290 292 293 294 295 295 295 295 294 292 291 289 287 286 287 287 286 285 284 284 284 283
260 269 271 274 281 281 277 277 280 277 277 277 276 278 278 277 281 281 283 284 285 286 288 287 289 290 290 290 291 291 292 292 292 292 292 292 291 289 288 286 285 283 282 280 280 280 280 280 280
261 265 274 279 283 284 280 285 279 283 275 274 278 280 281 281 282 284 285 286 287 288 289 289 288 290 290 291 292 292 293 294 294 294 293 292 290 289 288 287 285 284 283 282 280 280 279 279 278
262 271 273 278 279 281 281 286 284 280 277 279 282 283 283 282 283 285 286 288 288 288 288 289 291 293 293 292 293 294 293 292 293 293 293 292 291 290 289 287 286 284 283 281 281 281 281 279 278
265 272 275 277 282 284 287 281 278 280 280 280 279 279 280 282 284 285 286 286 287 289 290 291 293 294 294 294 294 294 294 294 294 293 292 292 291 290 288 287 287 286 285 285 284 282 281 280 279
273 275 279 278 279 280 282 282 278 278 283 277 274 279 284 286 287 287 287 288 290 292 294 295 296 296 297 298 298 297 297 297 296 295 295 294 293 291 291 291 290 289 288 287 286 285 283 282 280
274 275 273 275 276 279 280 281 290 287 274 271 281 287 290 289 290 292 294 296 296 296 296 298 299 301 299 298 298 298 298 298 297 296 296 295 295 294 293 293 292 291 290 289 288 286 284 281 279
276 274 276 277 280 283 283 285 285 280 277 286 292 293 291 292 292 293 294 297 297 297 300 301 300 298 299 299 299 299 298 297 298 298 298 297 296 296 296 296 296 295 293 291 289 286 285 283 281
276 278 280 282 285 285 289 294 293 295 296 296 291 290 289 290 291 296 305 303 301 302 301 299 299 299 299 299 298 297 299 300 300 299 299 299 300 301 300 299 298 296 295 293 290 288 285 283 280
276 277 280 283 285 287 290 288 293 296 299 298 295 294 294 296 303 309 306 303 303 301 300 299 299 299 298 299 300 302 301 301 302 302 303 304 304 303 302 300 299 297 295 292 290 288 286 283 280
279 280 282 283 285 285 285 291 292 295 294 291 293 295 301 306 306 302 302 300 299 299 299 299 300 300 301 303 303 304 305 305 305 306 307 306 305 303 301 300 299 297 295 293 291 289 285 282 279
279 280 281 281 284 287 289 290 291 292 289 291 294 298 301 300 298 299 299 299 299 300 301 303 303 304 305 305 307 307 307 306 306 307 306 305 304 302 302 300 299 297 296 294 291 289 286 282 278
280 282 282 284 287 288 293 292 296 293 297 298 301 304 303 303 304 303 304 306 307 307 308 309 308 306 307 307 307 306 306 307 307 306 305 304 304 304 303 302 301 300 297 295 292 289 285 280 275
Height
5913 5914 5914 5916 5918 5915 5915 5917 5917 5916 5915 5919 5921 5919 5918 5918 5918 5920 5918 5917 5916 5916 5916 5915 5915 5914 5914 5913 5913 5912 5911 5910 5909 5908 5906 5905 5905 5904 5903 5902 5901 5900 5899 5898 5897 5895 5894 5893 5892
5912 5912 5913 5914 5914 5915 5918 5916 5917 5917 5913 5919 5920 5919 5917 5917 5916 5916 5916 5917 5914 5914 5914 5914 5913 5913 5912 5911 5910 5910 5909 5908 5907 5906 5905 5904 5903 5902 5901 5900 5899 5898 5897 5896 5895 5894 5893 5892 5891
5912 5910 5911 5913 5912 5915 5917 5916 5916 5917 5914 5916 5918 5919 5919 5916 5916 5914 5914 5915 5912 5911 5912 5912 5911 5911 5910 5909 5908 5908 5907 5906 5904 5903 5903 5901 5900 5900 5899 5898 5897 5896 5895 5894 5893 5892 5891 5890 5890
5910 5909 5910 5912 5912 5913 5914 5914 5915 5916 5914 5917 5915 5917 5918 5917 5915 5914 5913 5913 5912 5912 5910 5909 5908 5908 5907 5907 5906 5905 5904 5903 5902 5901 5900 5899 5898 5897 5896 5895 5894 5893 5892 5891 5890 5890 5889 5888 5887
5909 5908 5907 5910 5911 5912 5913 5913 5913 5917 5912 5917 5915 5915 5915 5915 5913 5913 5912 5912 5909 5907 5907 5906 5905 5904 5904 5903 5902 5901 5900 5900 5899 5898 5897 5896 5895 5894 5893 5892 5891 5891 5889 5888 5888 5887 5886 5886 5885
5908 5907 5906 5910 5911 5911 5912 5912 5915 5915 5910 5914 5916 5912 5913 5912 5911 5910 5910 5910 5907 5903 5904 5903 5902 5901 5900 5899 5899 5898 5897 5896 5895 5894 5893 5892 5891 5890 5889 5888 5888 5887 5886 5885 5885 5884 5883 5882 5881
5905 5905 5905 5907 5911 5910 5911 5910 5914 5913 5910 5909 5914 5911 5909 5909 5908 5906 5906 5906 5904 5903 5902 5900 5900 5898 5897 5896 5895 5894 5894 5893 5892 5890 5889 5889 5888 5887 5886 5885 5884 5884 5883 5882 5881 5880 5880 5879 5878
5903 5904 5901 5902 5908 5908 5909 5910 5911 5910 5910 5907 5908 5909 5906 5905 5904 5904 5902 5903 5902 5900 5899 5897 5895 5895 5894 5893 5892 5891 5890 5889 5888 5887 5886 5885 5884 5883 5882 5882 5881 5880 5879 5878 5877 5876 5876 5875 5875
5901 5900 5901 5900 5905 5906 5905 5907 5907 5909 5907 5905 5903 5903 5904 5902 5901 5900 5900 5898 5898 5896 5894 5893 5894 5893 5891 5889 5888 5887 5886 5885 5884 5883 5883 5881 5881 5880 5878 5878 5877 5876 5875 5874 5873 5872 5872 5871 5870
5897 5897 5898 5900 5901 5903 5902 5903 5904 5906 5904 5901 5901 5900 5899 5898 5896 5896 5897 5896 5894 5892 5890 5889 5888 5890 5890 5886 5885 5884 5884 5882 5881 5881 5879 5878 5877 5876 5875 5874 5873 5871 5870 5869 5868 5867 5866 5866 5865
5894 5895 5896 5897 5897 5899 5901 5899 5899 5902 5903 5900 5899 5898 5897 5895 5892 5892 5893 5892 5890 5888 5887 5887 5885 5885 5885 5884 5882 5881 5879 5879 5877 5877 5876 5874 5874 5873 5872 5870 5868 5866 5865 5864 5862 5862 5861 5859 5858
5890 5893 5894 5894 5895 5895 5897 5898 5896 5897 5897 5897 5896 5895 5894 5892 5891 5889 5888 5889 5887 5886 5884 5883 5881 5881 5880 5879 5878 5877 5876 5874 5873 5873 5871 5869 5868 5867 5866 5865 5864 5861 5859 5858 5857 5855 5854 5852 5851
5888 5890 5891 5892 5892 5892 5893 5895 5893 5893 5893 5892 5891 5891 5889 5888 5887 5886 5885 5885 5884 5882 5881 5880 5878 5876 5875 5874 5873 5871 5870 5869 5868 5867 5865 5864 5861 5860 5858 5856 5854 5853 5853 5851 5848 5847 5846 5844 5843
5884 5886 5888 5888 5888 5889 5889 5891 5890 5889 5888 5888 5887 5886 5884 5884 5883 5882 5881 5880 5878 5877 5875 5874 5873 5871 5870 5869 5868 5866 5864 5863 5862 5861 5859 5857 5855 5853 5850 5847 5845 5842 5841 5840 5840 5838 5836 5834 5833
5880 5882 5886 5885 5885 5886 5886 5887 5887 5884 5884 5883 5883 5881 5880 5880 5879 5877 5876 5875 5873 5871 5870 5868 5867 5865 5864 5863 5861 5859 5858 5856 5854 5852 5851 5849 5847 5845 5842 5839 5836 5832 5829 5827 5825 5825 5825 5823 5821
5877 5878 5879 5880 5882 5882 5882 5884 5883 5880 5879 5878 5878 5877 5875 5875 5874 5873 5871 5870 5869 5867 5865 5863 5862 5860 5858 5857 5855 5852 5851 5848 5846 5844 5842 5839 5837 5833 5830 5827 5824 5821 5818 5815 5812 5810 5809 5808 5808
5873 5874 5874 5877 5878 5880 5878 5878 5878 5877 5874 5874 5873 5873 5870 5870 5869 5867 5866 5864 5863 5861 5859 5857 5855 5853 5852 5850 5847 5845 5843 5840 5837 5834 5831 5827 5824 5820 5817 5814 5810 5806 5804 5801 5798 5796 5794 5792 5791
5869 5870 5869 5869 5873 5874 5874 5873 5872 5871 5869 5868 5867 5867 5866 5864 5864 5861 5860 5858 5857 5855 5853 5850 5848 5846 5844 5842 5839 5836 5834 5830 5827 5823 5820 5816 5812 5808 5804 5800 5796 5792 5788 5785 5782 5780 5777 5774 5772
5863 5864 5865 5863 5866 5867 5866 5868 5866 5866 5863 5861 5861 5861 5861 5859 5857 5855 5854 5852 5850 5848 5846 5844 5841 5839 5836 5834 5831 5828 5824 5820 5816 5812 5808 5803 5798 5794 5789 5785 5781 5777 5774 5770 5766 5764 5761 5758 5755
5860 5860 5861 5860 5859 5861 5858 5862 5860 5859 5859 5855 5855 5854 5853 5852 5851 5848 5846 5845 5842 5840 5838 5834 5832 5829 5827 5824 5821 5817 5813 5808 5803 5798 5793 5788 5783 5778 5773 5768 5765 5760 5755 5751 5747 5744 5741 5739 5735
5856 5857 5857 5855 5853 5854 5853 5855 5853 5853 5852 5850 5848 5847 5846 5845 5843 5842 5839 5836 5833 5831 5829 5825 5822 5819 5816 5813 5809 5805 5800 5795 5789 5784 5778 5772 5766 5761 5755 5750 5745 5740 5735 5732 5727 5722 5719 5718 5715
5852 5851 5850 5849 5848 5847 5847 5847 5849 5846 5845 5843 5842 5840 5838 5837 5835 5834 5832 5830 5826 5823 5820 5816 5812 5808 5804 5800 5795 5790 5785 5780 5774 5768 5762 5756 5749 5743 5737 5730 5724 5719 5714 5710 5706 5702 5698 5695 5693
5846 5845 5844 5843 5842 5842 5842 5838 5844 5841 5840 5837 5835 5833 5831 5829 5827 5825 5823 5820 5816 5812 5808 5804 5800 5795 5790 5784 5778 5773 5767 5761 5754 5748 5743 5736 5729 5722 5715 5709 5704 5698 5694 5688 5683 5678 5674 5670 5669
5840 5840 5838 5837 5836 5836 5835 5834 5835 5834 5832 5829 5828 5826 5824 5822 5819 5816 5813 5809 5805 5801 5796 5792 5786 5780 5775 5769 5762 5756 5749 5742 5735 5728 5721 5714 5708 5701 5694 5688 5683 5677 5672 5665 5659 5654 5649 5645 5643
5834 5833 5832 5831 5830 5829 5828 5827 5827 5824 5824 5824 5822 5820 5817 5814 5811 5807 5803 5800 5795 5789 5784 5778 5773 5766 5759 5753 5746 5738 5730 5722 5714 5707 5700 5693 5687 5681 5673 5665 5659 5653 5646 5639 5633 5628 5623 5618 5617
5828 5827 5827 5824 5824 5823 5821 5819 5817 5816 5815 5815 5814 5811 5808 5804 5800 5797 5793 5787 5781 5776 5770 5764 5757 5750 5743 5735 5727 5719 5710 5702 5695 5687 5679 5672 5664 5657 5649 5641 5634 5626 5618 5611 5605 5602 5598 5592 5589
5824 5822 5821 5819 5818 5816 5816 5813 5811 5808 5807 5803 5800 5797 5794 5792 5789 5785 5779 5773 5767 5762 5755 5748 5741 5733 5724 5716 5708 5700 5691 5683 5675 5667 5659 5651 5643 5634 5626 5617 5609 5600 5592 5585 5579 5574 5570 5565 5562
5817 5816 5815 5813 5811 5810 5809 5806 5803 5802 5798 5794 5790 5786 5785 5783 5779 5773 5767 5761 5753 5746 5738 5731 5723 5715 5707 5698 5690 5681 5673 5664 5655 5647 5639 5629 5620 5611 5603 5594 5584 5577 5568 5559 5552 5546 5541 5534 5534
5811 5809 5808 5806 5804 5801 5799 5800 5795 5792 5788 5785 5782 5781 5777 5772 5767 5760 5753 5746 5739 5731 5724 5715 5707 5698 5690 5681 5672 5664 5655 5645 5635 5627 5618 5608 5598 5588 5580 5571 5563 5553 5545 5534 5524 5515 5509 5503 5502
5804 5803 5801 5799 5799 5795 5793 5791 5784 5780 5777 5772 5769 5765 5759 5753 5748 5741 5735 5728 5721 5714 5706 5697 5690 5682 5673 5665 5656 5647 5637 5626 5617 5606 5595 5586 5577 5567 5557 5548 5539 5528 5517 5508 5497 5488 5480 5473 5470